Radiation Dose at Monitoring Post of Fukushima Daini Nuclear Power Station
Date,Time,MP-1(microSv/h),MP-2(microSv/h),MP-3(microSv/h),MP-4(microSv/h),MP-5(microSv/h),MP-6(microSv/h),MP-7(microSv/h),Wind Direction,Wind Velocity(m/s),Rain
2016/01/26,00:00,0.446,0.260,0.459,0.425,0.402,0.217,0.191,south-southwest,4.3,No
2016/01/26,00:10,0.445,0.261,0.459,0.427,0.402,0.217,0.190,south-southwest,4.2,No
2016/01/26,00:20,0.445,0.260,0.459,0.426,0.402,0.217,0.190,south-southwest,4.4,No
2016/01/26,00:30,0.445,0.260,0.460,0.424,0.404,0.216,0.190,south-southwest,5.4,No
2016/01/26,00:40,0.443,0.261,0.460,0.425,0.401,0.218,0.190,south-southwest,4.8,No
2016/01/26,00:50,0.445,0.261,0.461,0.426,0.402,0.216,0.189,south-southwest,5.5,No
2016/01/26,01:00,0.443,0.261,0.460,0.425,0.402,0.217,0.189,southwest,3.4,No
2016/01/26,01:10,0.445,0.261,0.460,0.426,0.402,0.217,0.190,south-southwest,3.4,No
2016/01/26,01:20,0.445,0.261,0.462,0.425,0.403,0.217,0.190,south-southwest,4.0,No
2016/01/26,01:30,0.444,0.262,0.461,0.425,0.402,0.217,0.190,south-southwest,4.1,No
2016/01/26,01:40,0.445,0.260,0.461,0.425,0.401,0.216,0.190,south-southwest,3.7,No
2016/01/26,01:50,0.444,0.261,0.459,0.425,0.402,0.218,0.190,south-southwest,3.2,No
2016/01/26,02:00,0.445,0.262,0.459,0.427,0.401,0.215,0.190,south-southwest,4.1,No
2016/01/26,02:10,0.444,0.261,0.460,0.428,0.401,0.215,0.190,south-southwest,3.7,No
2016/01/26,02:20,0.444,0.261,0.461,0.425,0.403,0.217,0.190,southwest,3.4,No
2016/01/26,02:30,0.444,0.261,0.461,0.424,0.404,0.216,0.190,southwest,2.9,No
2016/01/26,02:40,0.445,0.261,0.460,0.425,0.401,0.217,0.190,south-southwest,3.4,No
2016/01/26,02:50,0.445,0.260,0.458,0.425,0.400,0.217,0.189,south-southwest,3.1,No
2016/01/26,03:00,0.443,0.261,0.458,0.426,0.401,0.217,0.190,south-southwest,3.0,No
2016/01/26,03:10,0.444,0.261,0.458,0.426,0.400,0.217,0.191,south-southwest,2.4,No
2016/01/26,03:20,0.443,0.260,0.460,0.426,0.402,0.217,0.189,south-southwest,2.2,No
2016/01/26,03:30,0.445,0.260,0.460,0.424,0.402,0.217,0.190,southwest,3.2,No
2016/01/26,03:40,0.443,0.260,0.459,0.425,0.403,0.217,0.190,southwest,4.2,No
2016/01/26,03:50,0.444,0.261,0.459,0.426,0.401,0.217,0.190,southwest,3.4,No
2016/01/26,04:00,0.445,0.261,0.460,0.426,0.401,0.217,0.190,south-southwest,3.8,No
2016/01/26,04:10,0.445,0.260,0.462,0.424,0.401,0.217,0.189,south-southwest,3.1,No
2016/01/26,04:20,0.445,0.259,0.460,0.425,0.401,0.217,0.190,southwest,2.8,No
2016/01/26,04:30,0.443,0.261,0.459,0.424,0.403,0.217,0.189,southwest,2.8,No
2016/01/26,04:40,0.445,0.261,0.460,0.425,0.402,0.216,0.190,southwest,2.3,No
2016/01/26,04:50,0.444,0.261,0.460,0.425,0.402,0.216,0.191,southwest,2.6,No
2016/01/26,05:00,0.443,0.261,0.459,0.426,0.402,0.216,0.191,south-southwest,3.1,No
2016/01/26,05:10,0.444,0.262,0.461,0.426,0.400,0.217,0.190,southwest,3.0,No
2016/01/26,05:20,0.444,0.261,0.461,0.426,0.400,0.217,0.191,southwest,2.2,No
2016/01/26,05:30,0.443,0.260,0.460,0.425,0.401,0.216,0.190,south-southwest,2.4,No
2016/01/26,05:40,0.443,0.260,0.459,0.425,0.400,0.216,0.189,southwest,3.2,No
2016/01/26,05:50,0.442,0.260,0.459,0.426,0.400,0.217,0.189,southwest,3.3,No
2016/01/26,06:00,0.444,0.261,0.461,0.425,0.399,0.217,0.190,southwest,2.4,No
2016/01/26,06:10,0.443,0.260,0.461,0.425,0.402,0.216,0.190,southwest,2.7,No
2016/01/26,06:20,0.443,0.260,0.460,0.425,0.402,0.217,0.190,southwest,3.0,No
2016/01/26,06:30,0.442,0.259,0.460,0.423,0.402,0.217,0.190,southwest,2.6,No
2016/01/26,06:40,0.443,0.260,0.460,0.425,0.400,0.217,0.190,south-southwest,2.5,No
2016/01/26,06:50,0.442,0.261,0.460,0.423,0.402,0.216,0.190,southwest,1.7,No
2016/01/26,07:00,0.444,0.259,0.461,0.426,0.399,0.216,0.189,southwest,2.4,No
2016/01/26,07:10,0.444,0.262,0.460,0.426,0.401,0.216,0.189,south-southwest,2.8,No
2016/01/26,07:20,0.444,0.260,0.458,0.425,0.400,0.216,0.190,southwest,2.2,No
2016/01/26,07:30,0.444,0.260,0.459,0.424,0.401,0.217,0.189,south-southwest,1.9,No
2016/01/26,07:40,0.443,0.260,0.458,0.422,0.401,0.216,0.190,south-southwest,1.5,No
2016/01/26,07:50,0.442,0.260,0.461,0.422,0.401,0.217,0.190,south-southwest,1.7,No
2016/01/26,08:00,0.443,0.260,0.458,0.424,0.400,0.216,0.189,southwest,2.5,No
2016/01/26,08:10,0.443,0.260,0.460,0.423,0.400,0.216,0.190,southwest,3.2,No
2016/01/26,08:20,0.442,0.261,0.458,0.423,0.401,0.216,0.189,southwest,3.4,No
2016/01/26,08:30,0.444,0.260,0.458,0.424,0.401,0.216,0.189,southwest,2.9,No
2016/01/26,08:40,0.444,0.260,0.459,0.424,0.400,0.216,0.190,southwest,2.9,No
2016/01/26,08:50,0.443,0.260,0.458,0.424,0.399,0.215,0.188,southwest,3.1,No
2016/01/26,09:00,0.442,0.260,0.458,0.424,0.398,0.215,0.189,southwest,3.9,No
2016/01/26,09:10,0.442,0.261,0.458,0.426,0.401,0.215,0.189,south-southwest,4.1,No
2016/01/26,09:20,0.442,0.261,0.459,0.423,0.400,0.215,0.188,south-southwest,3.8,No
2016/01/26,09:30,0.442,0.258,0.460,0.424,0.399,0.216,0.190,south-southwest,3.7,No
2016/01/26,09:40,0.444,0.257,0.459,0.425,0.401,0.215,0.189,south,3.7,No
2016/01/26,09:50,0.444,0.257,0.458,0.424,0.402,0.217,0.190,south,3.9,No
2016/01/26,10:00,0.442,0.258,0.456,0.424,0.399,0.216,0.189,south-southeast,3.1,No
2016/01/26,10:10,0.444,0.259,0.459,0.425,0.400,0.216,0.189,south,1.2,No
2016/01/26,10:20,0.441,0.259,0.459,0.424,0.401,0.216,0.190,southwest,5.7,No
2016/01/26,10:30,0.443,0.260,0.458,0.425,0.399,0.216,0.189,west-southwest,3.9,No
2016/01/26,10:40,0.440,0.259,0.458,0.423,0.403,0.218,0.190,west-southwest,4.2,No
2016/01/26,10:50,0.439,0.259,0.459,0.425,0.402,0.217,0.190,southwest,4.9,No
2016/01/26,11:00,0.442,0.260,0.456,0.425,0.402,0.217,0.190,west-southwest,5.2,No
2016/01/26,11:10,0.441,0.260,0.460,0.426,0.402,0.217,0.189,west,4.5,No
2016/01/26,11:20,0.444,0.259,0.460,0.426,0.403,0.217,0.188,west-southwest,4.5,No
2016/01/26,11:30,0.442,0.261,0.457,0.424,0.403,0.216,0.190,west,4.1,No
2016/01/26,11:40,0.445,0.259,0.460,0.426,0.402,0.217,0.190,west,6.4,No
2016/01/26,11:50,0.445,0.260,0.458,0.426,0.405,0.217,0.189,west,4.9,No
2016/01/26,12:00,0.445,0.261,0.457,0.429,0.404,0.216,0.191,west-northwest,3.6,No
2016/01/26,12:10,0.447,0.261,0.462,0.428,0.406,0.217,0.190,northwest,1.8,No
2016/01/26,12:20,0.443,0.261,0.457,0.427,0.406,0.216,0.190,west,4.1,No
2016/01/26,12:30,0.447,0.261,0.460,0.428,0.405,0.219,0.191,west,5.5,No
2016/01/26,12:40,0.445,0.261,0.459,0.427,0.406,0.218,0.189,west-northwest,5.5,No
2016/01/26,12:50,0.446,0.261,0.460,0.429,0.404,0.218,0.189,northwest,3.0,No
2016/01/26,13:00,0.447,0.260,0.460,0.426,0.408,0.218,0.189,north,0.8,No
2016/01/26,13:10,0.444,0.261,0.458,0.429,0.403,0.218,0.190,south-southwest,4.0,No
2016/01/26,13:20,0.445,0.260,0.459,0.426,0.407,0.218,0.190,south-southeast,6.2,No
2016/01/26,13:30,0.447,0.260,0.458,0.429,0.407,0.217,0.190,south,6.8,No
2016/01/26,13:40,0.444,0.263,0.461,0.428,0.406,0.217,0.189,south,7.5,No
2016/01/26,13:50,0.447,0.261,0.459,0.427,0.409,0.218,0.191,south,8.7,No
2016/01/26,14:00,0.445,0.261,0.461,0.428,0.406,0.218,0.191,south,8.4,No
2016/01/26,14:10,0.446,0.261,0.461,0.427,0.409,0.217,0.190,south,5.9,No
2016/01/26,14:20,0.448,0.261,0.463,0.429,0.408,0.218,0.190,south,7.3,No
2016/01/26,14:30,0.447,0.263,0.463,0.429,0.409,0.217,0.190,south,7.7,No
2016/01/26,14:40,0.449,0.261,0.462,0.429,0.408,0.217,0.190,south,9.8,No
2016/01/26,14:50,0.449,0.262,0.464,0.431,0.410,0.218,0.189,south,8.2,No
2016/01/26,15:00,0.446,0.261,0.462,0.428,0.408,0.218,0.190,south,9.0,No
2016/01/26,15:10,0.449,0.262,0.461,0.430,0.410,0.218,0.190,south,9.2,No
2016/01/26,15:20,0.448,0.263,0.464,0.429,0.407,0.218,0.190,south,8.6,No
2016/01/26,15:30,0.446,0.262,0.462,0.428,0.407,0.218,0.191,south,9.2,No
2016/01/26,15:40,0.449,0.262,0.462,0.429,0.408,0.218,0.191,south,9.5,No
2016/01/26,15:50,0.447,0.264,0.466,0.431,0.407,0.217,0.190,south,9.2,No
2016/01/26,16:00,0.447,0.263,0.464,0.429,0.407,0.217,0.190,south-southwest,8.9,No
2016/01/26,16:10,0.447,0.262,0.464,0.429,0.408,0.217,0.191,south,6.2,No
2016/01/26,16:20,0.447,0.263,0.466,0.430,0.409,0.218,0.190,south,7.3,No
2016/01/26,16:30,0.446,0.264,0.463,0.430,0.408,0.217,0.190,south,6.8,No
2016/01/26,16:40,0.447,0.264,0.463,0.428,0.409,0.218,0.191,south-southwest,6.1,No
2016/01/26,16:50,0.447,0.263,0.466,0.431,0.409,0.218,0.190,south-southwest,7.9,No
2016/01/26,17:00,0.448,0.264,0.464,0.431,0.409,0.219,0.190,south-southwest,6.4,No
2016/01/26,17:10,0.447,0.264,0.464,0.430,0.408,0.219,0.190,south-southwest,5.7,No
2016/01/26,17:20,0.448,0.263,0.467,0.428,0.409,0.218,0.190,south-southwest,5.3,No
2016/01/26,17:30,0.447,0.263,0.465,0.431,0.408,0.218,0.189,south-southwest,5.2,No
2016/01/26,17:40,0.448,0.263,0.464,0.429,0.409,0.218,0.190,south-southwest,5.4,No
2016/01/26,17:50,0.447,0.264,0.465,0.431,0.408,0.218,0.190,south-southwest,5.0,No
2016/01/26,18:00,0.449,0.262,0.467,0.429,0.410,0.218,0.190,southwest,4.4,No
2016/01/26,18:10,0.447,0.262,0.466,0.431,0.408,0.219,0.190,southwest,3.8,No
2016/01/26,18:20,0.448,0.261,0.464,0.429,0.408,0.219,0.190,southwest,4.6,No
2016/01/26,18:30,0.447,0.263,0.465,0.429,0.408,0.219,0.191,southwest,2.7,No
2016/01/26,18:40,0.448,0.262,0.465,0.432,0.409,0.216,0.190,southwest,3.9,No
2016/01/26,18:50,0.448,0.264,0.464,0.432,0.411,0.218,0.190,southwest,4.7,No
2016/01/26,19:00,0.446,0.262,0.465,0.430,0.409,0.217,0.190,southwest,6.0,No
2016/01/26,19:10,0.446,0.261,0.467,0.431,0.408,0.218,0.190,southwest,5.6,No
2016/01/26,19:20,0.448,0.263,0.468,0.431,0.408,0.218,0.190,southwest,6.1,No
2016/01/26,19:30,0.448,0.263,0.465,0.429,0.408,0.218,0.191,southwest,6.0,No
2016/01/26,19:40,0.448,0.263,0.466,0.431,0.408,0.219,0.190,southwest,4.7,No
2016/01/26,19:50,0.445,0.263,0.467,0.430,0.408,0.219,0.190,west-southwest,4.2,No
2016/01/26,20:00,0.448,0.263,0.467,0.432,0.408,0.218,0.191,southwest,5.3,No
2016/01/26,20:10,0.447,0.264,0.466,0.431,0.409,0.217,0.191,southwest,6.2,No
2016/01/26,20:20,0.448,0.264,0.466,0.431,0.409,0.218,0.191,southwest,6.5,No
2016/01/26,20:30,0.449,0.264,0.467,0.432,0.409,0.220,0.190,west,5.5,No
2016/01/26,20:40,0.448,0.262,0.466,0.430,0.407,0.219,0.190,west-southwest,5.7,No
2016/01/26,20:50,0.447,0.263,0.467,0.431,0.409,0.219,0.192,west-southwest,6.6,No
2016/01/26,21:00,0.448,0.262,0.467,0.431,0.409,0.218,0.190,west-southwest,7.6,No
2016/01/26,21:10,0.447,0.262,0.466,0.431,0.409,0.218,0.191,west-southwest,7.6,No
2016/01/26,21:20,0.447,0.263,0.468,0.431,0.408,0.218,0.190,west-southwest,8.1,No
2016/01/26,21:30,0.446,0.263,0.469,0.430,0.406,0.219,0.190,southwest,8.1,No
2016/01/26,21:40,0.449,0.264,0.464,0.432,0.410,0.219,0.191,southwest,7.3,No
2016/01/26,21:50,0.448,0.262,0.467,0.431,0.409,0.219,0.190,southwest,7.3,No
2016/01/26,22:00,0.448,0.262,0.468,0.430,0.408,0.218,0.190,southwest,8.1,No
2016/01/26,22:10,0.447,0.261,0.466,0.429,0.409,0.219,0.191,southwest,7.3,No
2016/01/26,22:20,0.448,0.262,0.467,0.430,0.409,0.218,0.190,southwest,6.6,No
2016/01/26,22:30,0.446,0.263,0.467,0.430,0.408,0.218,0.190,southwest,8.4,No
2016/01/26,22:40,0.446,0.262,0.467,0.429,0.410,0.218,0.191,southwest,7.6,No
2016/01/26,22:50,0.447,0.261,0.467,0.431,0.408,0.217,0.191,southwest,8.1,No
2016/01/26,23:00,0.448,0.263,0.467,0.430,0.408,0.218,0.190,southwest,7.4,No
2016/01/26,23:10,0.446,0.263,0.468,0.432,0.409,0.218,0.190,southwest,6.8,No
2016/01/26,23:20,0.448,0.263,0.467,0.431,0.408,0.219,0.190,southwest,6.4,No
2016/01/26,23:30,0.447,0.263,0.466,0.430,0.408,0.218,0.191,west-southwest,5.6,No
2016/01/26,23:40,0.448,0.263,0.465,0.430,0.409,0.218,0.190,west-southwest,5.9,No
2016/01/26,23:50,0.447,0.262,0.466,0.430,0.409,0.218,0.190,west-southwest,6.2,No
